Regional Weather Roundup
Issued by NWS Midland/Odessa, TX

Skip options and go directly to product.
Home | Oldest Version | Previous Version | Current Version | All | Graphics & Text | Save Text | Print | Product List | Glossary On

Skip product version selection by date and time.   
587
ASUS44 KMAF 060710
RWRMAF
MIDLAND AREA WEATHER ROUNDUP
NATIONAL WEATHER SERVICE MIDLAND TX
100 AM CST FRI MAR 06 2015

...IN SOUTHWEST TEXAS AND SOUTHEAST NEW MEXICO...

CITY           SKY/WX    TMP DP  RH WIND       PRES   REMARKS
ALPINE         CLEAR     26  24  92 W5        30.46F WCI  20
ANDREWS        FAIR      29  27  91 SW7       30.44S WCI  22
ARTESIA        CLEAR     27  27 100 S10       30.40F WCI  17
BIG SPRING     CLEAR     31  22  70 SE8       30.49F WCI  24
CARLSBAD       CLEAR     27  24  89 SE7       30.40F WCI  19
DRYDEN           N/A     32  26  78 CALM      30.46F
FORT STOCKTON  CLEAR     28  26  92 SE5       30.44F WCI  23
GUAD PASS      NOT AVBL
HOBBS          CLEAR     25  25 100 SW7       30.42F WCI  17
MARFA          CLEAR     23  21  93 NW6       30.40F WCI  16
MIDLAND AIRPK  CLEAR     32  25  75 CALM      30.46F
MIDLAND INTL   CLEAR     30  25  81 CALM      30.45F
ODESSA         CLEAR     30  24  78 CALM      30.45F
PECOS          CLEAR     29  26  91 CALM      30.46F
PRESIDIO       FAIR      38  26  60 NE8       30.43R WCI  32
SEMINOLE       CLEAR     27  26  94 W6        30.44F WCI  21
SNYDER         CLEAR     27  20  76 S7        30.48F WCI  19
WINK           CLEAR     28  23  81 N3        30.44F
$$
...OTHER STATIONS IN TEXAS...

CITY           SKY/WX    TMP DP  RH WIND       PRES   REMARKS
ABILENE        CLEAR     27  20  75 S6        30.53F WCI  20
AMARILLO       CLEAR     27  23  85 S12       30.36F WCI  17
AUSTIN         PTCLDY    26  20  77 N8        30.58F WCI  18
BROWNSVILLE    CLOUDY    49  32  52 N12G22    30.50F
CORPUS CHRISTI MOCLDY    40  28  62 N15       30.56S WCI  32
DALLAS FTW     CLEAR     29  21  72 SW7       30.58S WCI  22
DEL RIO        CLEAR     37  28  70 NE6       30.53F WCI  32
EL PASO        CLEAR     38  20  48 CALM      30.37F
HOUSTON INT    PTCLDY    35  23  61 N5        30.57S WCI  31
LUBBOCK        CLEAR     30  23  75 S10       30.42S WCI  21
SAN ANGELO     CLEAR     28  22  78 S3        30.52F
SAN ANTONIO    CLEAR     33  21  61 N5        30.57F WCI  29
WACO           CLEAR     27  20  75 NW3       30.61S
WICHITA FALLS  NOT AVBL
$$
...OTHER LOCATIONS IN NEW MEXICO...

CITY           SKY/WX    TMP DP  RH WIND       PRES   REMARKS
ALAMAGORDO     CLEAR     32  23  69 NW3       30.39S
ALBUQUERQUE    CLEAR     36  13  38 E6        30.38S WCI  31
CANNON AFB     CLEAR     24  20  84 SW8       30.35F WCI  15
CLOVIS         CLEAR     23  18  80 SW6       30.36F WCI  16
HOLLOMAN AFB   CLEAR     29  22  76 E3        30.37F
ROSWELL        CLEAR     26  24  92 S5        30.39S WCI  20
RUIDOSO        CLEAR     32  14  47 NW5       30.37S WCI  27
SANTA FE       CLEAR     30  14  51 N9        30.34F WCI  22
TRUTH OR CONSE CLEAR     34  18  52 W3        30.36F
TUCUMCARI      CLEAR     30  23  75 SW14      30.32F WCI  19
$$

USA.gov is the U.S. government's official web portal to all federal, state and local government web resources and services.